Stations météo

réclame
Mon MeteoGroup
Santander, Espagne (8023): Température de l'air & dewpoint: 12.02.2018 05:00:00 - 18.02.2018 05:00:00 (CET)Santander, Espagne (8023): Vitesse du vent: 12.02.2018 05:00:00 - 18.02.2018 05:00:00 (CET)Santander, Espagne (8023): Direction du vent: 12.02.2018 05:00:00 - 18.02.2018 05:00:00 (CET)Santander, Espagne (8023): reduced air pressure: 12.02.2018 05:00:00 - 18.02.2018 05:00:00 (CET)Santander, Espagne (8023): visibility: 12.02.2018 05:00:00 - 18.02.2018 05:00:00 (CET)Santander, Espagne (8023): Quantités de précipitations: 12.02.2018 05:00:00 - 18.02.2018 05:00:00 (CET)
Date & Time tt [°C] td [°C] ff [km/h] ff [knt] dd ppp [hPa] vv [km] rr [mm]
18.02.2018 05:00:00 7,7 4,1 16 9 WSW 1028,3 15 0,0
18.02.2018 04:00:00 8,0 4,9 16 9 WSW 1028,6 12 -
18.02.2018 03:00:00 8,1 5,4 15 8 WSW 1029,3 12 0,0
18.02.2018 02:00:00 8,3 5,6 9 5 SW 1029,5 12 0,0
18.02.2018 01:00:00 8,7 6,3 11 6 SSW 1029,7 12 -
18.02.2018 00:00:00 8,9 6,2 11 6 WSW 1029,7 10 -
17.02.2018 23:00:00 9,4 5,6 13 7 WSW 1029,6 11 0,0
17.02.2018 22:00:00 10,5 5,9 13 7 NW 1029,4 15 -
17.02.2018 21:00:00 10,3 6,6 5 3 N 1029,4 7 -
17.02.2018 20:00:00 10,8 6,3 11 6 NNW 1029,1 10 -
17.02.2018 19:00:00 10,9 5,2 15 8 NNW 1028,9 20 -
17.02.2018 18:00:00 11,2 5,9 16 9 NNW 1028,6 10 0,0
17.02.2018 17:00:00 11,4 6,3 16 9 NNW 1028,5 9 0,0
17.02.2018 16:00:00 11,8 5,6 22 12 NNW 1028,3 20 -
17.02.2018 15:00:00 11,8 7,5 21 11 NW 1028,4 10 0,0
17.02.2018 14:00:00 11,7 7,2 21 11 NW 1028,5 9 0,0
17.02.2018 13:00:00 9,6 7,7 18 10 W 1028,9 15 -
17.02.2018 12:00:00 10,9 8,8 26 14 W 1028,3 8 -
17.02.2018 11:00:00 11,0 8,9 26 14 WNW 1027,7 7 -
17.02.2018 10:00:00 10,6 8,7 26 14 W 1027,1 15 -
17.02.2018 09:00:00 10,3 8,7 24 13 W 1026,9 8 -
17.02.2018 08:00:00 10,6 8,4 26 14 W 1026,0 10 0,0
17.02.2018 07:00:00 10,4 8,5 26 14 W 1025,7 15 -
17.02.2018 06:00:00 10,3 8,9 24 13 W 1025,4 11 -
17.02.2018 05:00:00 10,0 9,2 15 8 W 1025,3 4,1 -
17.02.2018 04:00:00 10,4 9,0 18 10 WNW 1025,3 5 -
17.02.2018 03:00:00 10,3 8,6 22 12 NW 1024,8 6 -
17.02.2018 02:00:00 10,8 8,7 34 18 NNW 1023,8 - -
17.02.2018 01:00:00 11,6 11,3 31 17 WNW 1023,2 5 -
17.02.2018 00:00:00 12,0 11,8 22 12 W 1022,2 0,9 -
16.02.2018 23:00:00 12,1 11,9 9 5 SW 1021,1 1,9 -
16.02.2018 22:00:00 12,0 11,8 9 5 WSW 1020,8 0,9 -
16.02.2018 21:00:00 11,9 11,7 11 6 W 1020,9 1,5 -
16.02.2018 20:00:00 11,9 11,6 8 4 W 1020,9 0,4 0,0
16.02.2018 19:00:00 12,3 11,7 4 2 NW 1020,4 0,3 -
16.02.2018 18:00:00 12,1 11,6 8 4 NE 1019,8 1,7 0,0
16.02.2018 17:00:00 12,3 11,7 9 5 NE 1019,6 1,6 0,0
16.02.2018 16:00:00 12,8 11,9 13 7 ENE 1019,9 0,8 -
16.02.2018 15:00:00 13,6 12,2 11 6 E 1020,0 4,4 0,0
16.02.2018 14:00:00 13,5 12,1 16 9 E 1021,1 2,9 0,0
16.02.2018 13:00:00 13,5 12,4 9 5 ENE 1021,8 2,0 -
16.02.2018 12:00:00 12,8 11,9 15 8 E 1022,3 2,4 0,0
16.02.2018 11:00:00 - - - - - - - -
16.02.2018 10:00:00 11,8 11,3 8 4 W 1023,0 0,3 -
16.02.2018 09:00:00 11,3 10,7 4 2 S 1022,8 1,0 0,0
16.02.2018 08:00:00 11,4 10,8 2 1 SE 1022,6 1,4 0,0
16.02.2018 07:00:00 11,7 10,9 5 3 ENE 1022,1 8 -
16.02.2018 06:00:00 11,9 10,6 4 2 ENE 1022,4 4,0 0,0
16.02.2018 05:00:00 12,3 10,4 4 2 E 1022,3 3,2 0,0
16.02.2018 04:00:00 12,4 10,3 13 7 SSE 1022,5 12 -
16.02.2018 03:00:00 12,5 10,4 13 7 SSE 1023,0 13 0,0
16.02.2018 02:00:00 12,5 10,4 15 8 SE 1022,9 17 0,0
16.02.2018 01:00:00 12,6 10,7 16 9 SSE 1023,1 12 -
16.02.2018 00:00:00 12,4 10,8 13 7 SSE 1023,0 7 0,0
15.02.2018 23:00:00 12,6 10,7 4 2 SE 1023,1 4,1 0,0
15.02.2018 22:00:00 12,5 11,1 11 6 W 1022,9 20 -
15.02.2018 21:00:00 13,1 11,0 18 10 W 1021,7 2,5 0,0
15.02.2018 20:00:00 17,3 9,2 15 8 SW 1021,0 20 0,0
15.02.2018 19:00:00 17,6 9,2 24 13 S 1020,1 25 -
15.02.2018 18:00:00 17,9 9,3 24 13 S 1019,6 20 0,0
15.02.2018 17:00:00 19,2 9,4 22 12 SSW 1019,2 20 0,0
15.02.2018 16:00:00 18,8 9,6 18 10 S 1019,3 30 -
15.02.2018 15:00:00 18,4 10,2 11 6 ESE 1019,6 17 0,0
15.02.2018 14:00:00 16,8 8,5 15 8 E 1020,1 20 0,0
15.02.2018 13:00:00 15,7 9,4 11 6 E 1020,4 25 -
15.02.2018 12:00:00 15,5 9,6 8 4 E 1020,4 14 0,0
15.02.2018 11:00:00 14,8 10,6 5 3 ENE 1020,0 17 0,0
15.02.2018 10:00:00 13,2 8,9 5 3 E 1019,5 30 -
15.02.2018 09:00:00 12,0 9,4 4 2 E 1018,9 14 0,0
15.02.2018 08:00:00 12,5 8,4 2 1 ENE 1018,1 14 0,0
15.02.2018 07:00:00 12,6 8,7 4 2 ESE 1017,5 30 -
15.02.2018 06:00:00 13,5 7,7 5 3 E 1017,1 18 0,0
15.02.2018 05:00:00 12,5 8,0 9 5 SE 1016,5 20 0,0
15.02.2018 04:00:00 12,9 7,8 11 6 SE 1016,6 30 -
15.02.2018 03:00:00 14,5 7,5 5 3 S 1016,6 20 0,0
15.02.2018 02:00:00 14,7 7,5 5 3 SW 1016,5 20 0,0
15.02.2018 01:00:00 13,1 7,7 11 6 SSE 1016,3 30 -
15.02.2018 00:00:00 12,9 8,0 15 8 SSE 1016,1 20 0,0
14.02.2018 23:00:00 13,0 8,3 15 8 SSE 1016,0 20 0,0
14.02.2018 22:00:00 13,2 8,5 11 6 SE 1015,5 30 -
14.02.2018 21:00:00 13,5 7,9 8 4 SE 1015,1 18 0,0
14.02.2018 20:00:00 13,7 7,5 5 3 ESE 1014,8 20 0,0
14.02.2018 19:00:00 14,7 7,5 2 1 ESE 1014,0 19 -
14.02.2018 18:00:00 15,2 7,2 5 3 W 1013,5 20 0,0
14.02.2018 17:00:00 16,2 7,9 5 3 WNW 1012,9 15 0,0
14.02.2018 16:00:00 16,8 9,5 8 4 W 1012,4 20 -
14.02.2018 15:00:00 17,0 7,1 11 6 SW 1011,6 20 0,0
14.02.2018 14:00:00 15,9 7,4 18 10 SSW 1011,4 20 0,0
14.02.2018 13:00:00 14,3 7,1 15 8 SSW 1011,6 20 -
14.02.2018 12:00:00 13,9 6,7 15 8 S 1012,2 20 -
14.02.2018 11:00:00 13,4 6,7 11 6 SW 1011,8 20 -
14.02.2018 10:00:00 11,1 7,6 5 3 S 1011,4 20 -
14.02.2018 09:00:00 10,1 7,5 13 7 SSE 1011,2 20 0,0
14.02.2018 08:00:00 9,1 7,0 18 10 SSE 1011,4 10 -
14.02.2018 07:00:00 9,1 6,4 13 7 SSE 1012,1 12 -
14.02.2018 06:00:00 8,7 6,1 4 2 WSW 1012,7 11 -
14.02.2018 05:00:00 8,3 6,6 18 10 SSE 1012,6 13 0,0
14.02.2018 04:00:00 7,9 6,5 16 9 SSE 1013,4 10 -
14.02.2018 03:00:00 8,3 5,6 8 4 S 1014,3 7 -
14.02.2018 02:00:00 8,5 5,2 11 6 SSW 1014,7 14 -
14.02.2018 01:00:00 8,2 5,5 15 8 SSW 1015,1 10 -
14.02.2018 00:00:00 8,3 6,1 13 7 SSW 1015,9 9 -
13.02.2018 23:00:00 8,7 5,8 9 5 SW 1016,3 - -
13.02.2018 22:00:00 9,3 5,5 8 4 SW 1016,3 10 -
13.02.2018 21:00:00 10,2 5,6 18 10 WNW 1016,1 9 0,0
13.02.2018 20:00:00 10,0 5,4 22 12 WNW 1015,9 8 0,0
13.02.2018 19:00:00 10,2 5,4 28 15 NW 1015,7 15 -
13.02.2018 18:00:00 10,1 5,5 34 18 WNW 1015,1 9 -
13.02.2018 17:00:00 9,4 7,2 31 17 W 1014,8 4,8 -
13.02.2018 16:00:00 9,3 5,3 41 22 W 1014,1 20 -
13.02.2018 15:00:00 9,9 6,6 37 20 W 1013,7 12 -
13.02.2018 14:00:00 8,5 6,5 24 13 WSW 1013,5 19 0,0
13.02.2018 13:00:00 7,4 6,3 18 10 WSW 1014,0 20 -
13.02.2018 12:00:00 8,5 6,8 31 17 W 1013,4 14 -
13.02.2018 11:00:00 6,5 3,8 18 10 SW 1013,0 3,3 -
13.02.2018 10:00:00 7,7 2,8 16 9 SW 1012,1 5 -
13.02.2018 09:00:00 7,5 -0,7 35 19 SSW 1010,2 17 -
13.02.2018 08:00:00 7,4 -2,1 26 14 S 1010,3 20 -
13.02.2018 07:00:00 7,2 -3,4 26 14 SSW 1012,4 20 -
13.02.2018 06:00:00 6,0 -3,1 22 12 SSW 1013,9 20 0,0
13.02.2018 05:00:00 5,0 -1,7 24 13 S 1014,8 20 0,0
13.02.2018 04:00:00 4,5 -1,7 24 13 S 1016,5 20 -
13.02.2018 03:00:00 4,2 -1,4 21 11 S 1018,0 20 0,0
13.02.2018 02:00:00 4,3 -1,1 18 10 S 1019,1 20 0,0
13.02.2018 01:00:00 3,6 0,1 16 9 SSW 1020,1 20 -
13.02.2018 00:00:00 3,6 0,5 16 9 S 1021,2 20 0,0
12.02.2018 23:00:00 3,9 0,9 16 9 S 1021,9 20 0,0
12.02.2018 22:00:00 4,7 1,5 15 8 SSW 1022,9 20 -
12.02.2018 21:00:00 5,0 1,8 15 8 SW 1022,7 20 0,0
12.02.2018 20:00:00 5,0 2,5 13 7 SW 1022,9 19 0,0
12.02.2018 19:00:00 5,2 3,4 13 7 S 1023,2 12 -
12.02.2018 18:00:00 5,1 3,3 11 6 S 1023,4 16 0,0
12.02.2018 17:00:00 5,3 3,0 9 5 W 1023,7 13 -
12.02.2018 16:00:00 5,7 3,2 15 8 WNW 1023,9 12 -
12.02.2018 15:00:00 5,4 3,7 13 7 S 1024,1 20 -
12.02.2018 14:00:00 4,3 2,3 9 5 S 1024,5 2,5 -
12.02.2018 13:00:00 5,8 3,0 9 5 E 1024,9 12 -
12.02.2018 12:00:00 5,8 3,0 9 5 S 1024,9 20 0,0
12.02.2018 11:00:00 4,8 2,7 21 11 WSW 1024,5 20 -
12.02.2018 10:00:00 5,1 2,9 16 9 SW 1024,3 14 -
12.02.2018 09:00:00 4,6 3,1 15 8 SW 1023,9 16 -
12.02.2018 08:00:00 4,5 2,7 16 9 SW 1023,6 19 0,0
12.02.2018 07:00:00 5,0 2,9 11 6 SSW 1023,2 20 -
12.02.2018 06:00:00 6,3 3,3 9 5 NW 1023,2 3,8 0,0
12.02.2018 05:00:00 7,2 3,2 13 7 N 1023,2 10 0,0

tt = Température de l'air
td = dewpoint
ff = Vitesse du vent
dd = Direction du vent
ppp = reduced air pressure
vv = visibility
rr = Quantités de précipitations

stations d'obs. à proximité